Date String (YYYY-MM-DD hh:mm:ss) UTC,Instrument flags,Ambient pressure (hPa),Sample flow (lpm),Bypass flow (lpm),Sample temperature (°C),Ambient temperature (°C),ASC tube jacket temperature (°C),LED temperature (°C),Box temperature (°C),Sample RH (%),Span deviation,Mass concentration (μg/m³),Mass concentration (μg/m³),Mass concentration (μg/m³)
DateTimeUTC,F1_M11,P_M11,Q1_M11,Q2_M11,T1_M11,T2_M11,T3_M11,T4_M11,T5_M11,U1_M11,ZSPAN_M11,X2_M11,X0_M11,X1_M11
2023-05-03 02:00:00,,0828.3,5.01,0.00,29.8,28.2,00.0,38.2,31.2,18.8,0000.0,0005.07,0013.03,0003.55
2023-05-03 02:01:00,,0828.3,5.00,0.00,29.8,28.2,00.0,38.2,31.2,18.8,0000.0,0005.06,0012.76,0003.55
2023-05-03 02:02:00,,0828.3,5.01,0.00,29.8,28.2,00.0,38.2,31.2,18.9,0000.0,0005.07,0012.20,0003.55
2023-05-03 02:03:00,,0828.3,4.99,0.00,29.8,28.2,00.0,38.2,31.3,18.8,0000.0,0005.06,0012.50,0003.54
2023-05-03 02:04:00,,0828.2,4.99,0.00,29.8,28.2,00.0,38.2,31.2,18.8,0000.0,0005.14,0012.90,0003.55
2023-05-03 02:05:00,,0828.2,5.00,0.00,29.8,28.1,00.0,38.2,31.3,18.7,0000.0,0005.20,0012.69,0003.56
2023-05-03 02:06:00,,0828.2,5.02,0.00,29.8,28.1,00.0,38.2,31.2,18.7,0000.0,0005.23,0012.16,0003.57
2023-05-03 02:07:00,,0828.3,5.00,0.00,29.8,28.1,00.0,38.2,31.2,18.5,0000.0,0005.18,0011.81,0003.58
2023-05-03 02:08:00,,0828.3,5.00,0.00,29.8,28.1,00.0,38.2,31.2,18.5,0000.0,0005.12,0012.09,0003.58
2023-05-03 02:09:00,,0828.3,5.00,0.00,29.8,28.1,00.0,38.2,31.2,18.5,0000.0,0005.18,0012.16,0003.58
2023-05-03 02:10:00,,0828.3,5.00,0.00,29.8,28.1,00.0,38.2,31.3,18.6,0000.0,0005.23,0012.35,0003.58
2023-05-03 02:11:00,,0828.2,5.00,0.00,29.8,28.1,00.0,38.2,31.2,18.7,0000.0,0005.29,0012.51,0003.58
2023-05-03 02:12:00,,0828.2,5.01,0.00,29.8,28.1,00.0,38.2,31.2,18.7,0000.0,0005.29,0012.44,0003.60
2023-05-03 02:13:00,,0828.2,5.00,0.00,29.8,28.1,00.0,38.2,31.2,18.7,0000.0,0005.24,0012.35,0003.61
2023-05-03 02:14:00,,0828.2,5.00,0.00,29.8,28.1,00.0,38.2,31.2,18.7,0000.0,0005.23,0012.58,0003.61
2023-05-03 02:15:00,,0828.3,4.99,0.00,29.8,28.1,00.0,38.2,31.2,18.7,0000.0,0005.17,0012.12,0003.61
2023-05-03 02:16:00,,0828.3,4.99,0.00,29.8,28.1,00.0,38.2,31.2,18.8,0000.0,0005.15,0011.90,0003.62
2023-05-03 02:17:00,,0828.3,5.00,0.00,29.8,28.1,00.0,38.2,31.2,18.7,0000.0,0005.14,0012.01,0003.61
2023-05-03 02:18:00,,0828.2,5.02,0.00,29.8,28.1,00.0,38.2,31.2,18.6,0000.0,0005.15,0012.19,0003.60
2023-05-03 02:19:00,,0828.2,4.99,0.00,29.7,28.1,00.0,38.2,31.2,18.4,0000.0,0005.20,0011.96,0003.60
2023-05-03 02:20:00,,0828.2,5.00,0.00,29.7,28.1,00.0,38.2,31.2,18.5,0000.0,0005.21,0011.95,0003.61
2023-05-03 02:21:00,,0828.2,5.00,0.00,29.7,28.1,00.0,38.2,31.2,18.6,0000.0,0005.24,0011.91,0003.64
2023-05-03 02:22:00,,0828.3,5.00,0.00,29.7,28.1,00.0,38.2,31.2,18.5,0000.0,0005.24,0011.84,0003.66
2023-05-03 02:23:00,,0828.3,5.02,0.00,29.7,28.1,00.0,38.2,31.2,18.5,0000.0,0005.24,0012.13,0003.65
2023-05-03 02:24:00,,0828.2,5.01,0.00,29.7,28.0,00.0,38.2,31.2,18.5,0000.0,0005.26,0012.04,0003.66
2023-05-03 02:25:00,,0828.2,4.99,0.00,29.7,28.0,00.0,38.2,31.2,18.6,0000.0,0005.30,0011.65,0003.67
2023-05-03 02:26:00,,0828.2,4.99,0.00,29.7,28.0,00.0,38.2,31.2,18.6,0000.0,0005.31,0012.07,0003.68
2023-05-03 02:27:00,,0828.2,5.00,0.00,29.7,28.0,00.0,38.2,31.1,18.6,0000.0,0005.29,0012.21,0003.69
2023-05-03 02:28:00,,0828.2,5.01,0.00,29.7,28.0,00.0,38.1,31.2,18.6,0000.0,0005.26,0012.10,0003.68
2023-05-03 02:29:00,,0828.2,5.01,0.00,29.7,28.0,00.0,38.1,31.2,18.6,0000.0,0005.26,0011.80,0003.69
2023-05-03 02:30:00,,0828.3,4.99,0.00,29.7,28.0,00.0,38.1,31.2,18.7,0000.0,0005.27,0011.71,0003.70
2023-05-03 02:31:00,,0828.2,4.99,0.00,29.7,27.9,00.0,38.1,31.1,18.7,0000.0,0005.21,0011.56,0003.69
2023-05-03 02:32:00,,0828.2,5.00,0.00,29.7,27.9,00.0,38.1,31.1,18.7,0000.0,0005.18,0011.56,0003.67
2023-05-03 02:33:00,,0828.2,5.00,0.00,29.6,27.9,00.0,38.1,31.1,18.8,0000.0,0005.21,0011.69,0003.66
2023-05-03 02:34:00,,0828.2,5.00,0.00,29.7,27.9,00.0,38.1,31.1,18.7,0000.0,0005.20,0011.47,0003.67
2023-05-03 02:35:00,,0828.2,5.01,0.00,29.6,27.9,00.0,38.1,31.0,18.6,0000.0,0005.20,0011.34,0003.67
2023-05-03 02:36:00,,0828.1,4.99,0.00,29.6,27.9,00.0,38.1,31.0,18.6,0000.0,0005.17,0011.22,0003.67
2023-05-03 02:37:00,,0828.1,5.00,0.00,29.6,27.9,00.0,38.1,31.1,18.6,0000.0,0005.17,0010.76,0003.66
2023-05-03 02:38:00,,0828.1,5.01,0.00,29.6,27.9,00.0,38.1,31.1,18.6,0000.0,0005.16,0010.56,0003.65
2023-05-03 02:39:00,,0828.0,5.00,0.00,29.6,27.9,00.0,38.1,31.1,18.5,0000.0,0005.18,0010.66,0003.66
2023-05-03 02:40:00,,0828.0,5.00,0.00,29.6,27.9,00.0,38.1,31.1,18.5,0000.0,0005.23,0011.20,0003.66
2023-05-03 02:41:00,,0828.0,5.01,0.00,29.6,27.9,00.0,38.1,31.0,18.6,0000.0,0005.22,0011.71,0003.66
2023-05-03 02:42:00,,0828.1,5.00,0.00,29.6,27.9,00.0,38.0,31.1,18.5,0000.0,0005.26,0011.83,0003.66
2023-05-03 02:43:00,,0828.1,4.99,0.00,29.6,27.9,00.0,38.0,31.0,18.4,0000.0,0005.27,0011.80,0003.67
2023-05-03 02:44:00,,0828.2,4.99,0.00,29.6,27.9,00.0,38.1,31.1,18.4,0000.0,0005.25,0011.71,0003.69
2023-05-03 02:45:00,,0828.2,4.99,0.00,29.6,27.9,00.0,38.1,31.1,18.4,0000.0,0005.19,0011.52,0003.69
2023-05-03 02:46:00,,0828.2,5.02,0.00,29.6,27.9,00.0,38.0,31.1,18.5,0000.0,0005.14,0011.64,0003.67
2023-05-03 02:47:00,,0828.2,4.99,0.00,29.6,27.9,00.0,38.0,31.0,18.4,0000.0,0005.10,0011.54,0003.66
2023-05-03 02:48:00,,0828.2,4.99,0.00,29.6,27.9,00.0,38.0,31.1,18.3,0000.0,0005.11,0011.52,0003.66
2023-05-03 02:49:00,,0828.2,5.01,0.00,29.6,27.9,00.0,38.0,31.0,18.4,0000.0,0005.15,0011.84,0003.66
2023-05-03 02:50:00,,0828.2,5.00,0.00,29.6,27.9,00.0,38.0,31.1,18.4,0000.0,0005.18,0012.36,0003.67
2023-05-03 02:51:00,,0828.2,5.01,0.00,29.6,27.9,00.0,38.0,31.0,18.3,0000.0,0005.15,0011.93,0003.66
2023-05-03 02:52:00,,0828.2,5.01,0.00,29.6,27.9,00.0,38.0,31.0,18.3,0000.0,0005.16,0011.23,0003.67
2023-05-03 02:53:00,,0828.2,5.00,0.00,29.6,27.9,00.0,38.0,31.1,18.3,0000.0,0005.12,0011.06,0003.68
2023-05-03 02:54:00,,0828.2,5.00,0.00,29.6,27.9,00.0,38.0,31.0,18.3,0000.0,0005.08,0011.03,0003.67
2023-05-03 02:55:00,,0828.3,4.99,0.00,29.6,27.9,00.0,38.0,31.0,18.2,0000.0,0005.04,0011.09,0003.66
2023-05-03 02:56:00,,0828.2,4.99,0.00,29.6,27.9,00.0,38.0,31.0,18.2,0000.0,0005.06,0011.43,0003.66
2023-05-03 02:57:00,,0828.3,5.02,0.00,29.6,27.9,00.0,38.0,31.0,18.2,0000.0,0005.04,0011.27,0003.67
2023-05-03 02:58:00,,0828.3,5.00,0.00,29.6,27.9,00.0,38.0,31.0,18.3,0000.0,0005.07,0011.44,0003.68
2023-05-03 02:59:00,,0828.3,5.00,0.00,29.6,27.9,00.0,38.0,31.0,18.3,0000.0,0005.06,0011.40,0003.67
